Location: Cambroso
(45.2833°N, 12.0850°E)
Time: 16:37:45
(UTC+00:00)

ARGOS - Pass Details

Date: 21 January 2021
Orbit: 821 x 834 km, 98.4° (Epoch: 26 February)

Event Time Altitude Azimuth Distance (km) Brightness Sun altitude
Rises 18:50:55 0° 185° (S) 3,339 6.4 -29.2°
Reaches altitude 10° 18:53:23 10° 192° (SSW) 2,412 5.7 -29.6°
Maximum altitude 18:58:25 41° 262° (W) 1,172 4.3 -30.5°
Drops below altitude 10° 19:03:30 10° 333° (NNW) 2,434 5.9 -31.4°
Sets 19:06:00 0° 340° (NNW) 3,373 6.6 -31.8°
